Theta_e
306 307 311 309 306 304 305 306 308 309 305 303 306 307 308 309 308 308 308 306 305 304 304 304 304 304 304 304 305 304 305 306 306 306 307 308 309 310 310 310 310 310 312 312
305 307 305 304 304 304 306 308 313 308 303 302 306 306 308 308 308 305 305 304 304 305 304 304 304 304 304 303 302 301 302 303 305 306 306 306 306 306 305 306 307 309 311 312
306 305 302 303 304 305 306 307 308 306 305 306 304 311 316 308 304 304 304 305 304 305 305 305 304 303 302 301 300 300 300 301 302 303 303 303 303 302 303 303 303 304 304 305
305 302 302 303 304 304 307 302 302 304 307 319 304 321 314 313 308 305 305 304 304 304 304 304 303 303 302 301 300 299 299 299 299 299 300 301 303 303 302 302 303 303 304 304
307 303 303 304 305 303 306 302 303 303 306 303 310 311 315 308 309 309 307 305 305 305 305 304 303 302 301 301 300 299 299 299 299 300 300 300 301 301 301 301 301 301 302 302
302 301 303 304 302 301 302 303 303 303 307 316 308 312 317 314 310 307 306 306 306 305 305 303 302 302 302 301 300 299 299 298 298 299 300 300 301 301 301 301 301 301 302 301
305 304 302 302 303 303 303 305 327 327 326 326 304 306 313 313 308 306 305 304 305 305 303 303 303 302 302 300 299 298 298 298 299 300 300 300 299 299 299 299 299 299 300 300
312 317 304 302 303 303 304 303 316 323 322 318 300 314 312 306 304 306 306 304 304 303 303 303 302 302 300 298 298 298 298 300 300 299 299 299 298 298 298 298 297 298 298 299
309 307 302 302 301 301 304 303 300 309 297 306 313 312 309 309 307 305 304 304 304 303 303 303 302 301 299 298 297 298 300 300 300 298 297 296 295 295 295 295 295 295 295 295
303 309 301 301 301 301 301 300 308 310 315 321 322 317 316 313 305 302 303 304 304 303 302 302 302 300 298 297 298 300 301 299 297 296 294 294 293 293 293 293 293 293 294 295
300 303 304 301 302 306 302 303 302 303 306 314 318 318 313 319 310 307 303 303 302 303 303 302 301 298 297 297 301 301 299 296 295 293 292 292 292 292 292 292 292 292 293 293
301 303 307 305 299 298 301 304 303 309 314 304 303 308 310 306 304 302 304 303 303 303 302 301 299 297 297 301 301 297 296 294 293 292 291 291 291 291 291 291 291 292 292 292
302 308 314 312 300 298 300 302 301 301 301 304 308 311 304 302 304 304 306 305 303 302 301 299 297 297 300 300 297 295 294 293 292 291 290 291 291 291 291 291 291 292 292 292
302 310 312 314 313 305 302 301 301 302 306 307 307 306 306 307 307 307 309 307 305 301 299 297 296 298 299 297 295 295 293 291 290 290 290 290 291 291 291 291 291 291 291 291
306 309 307 307 307 306 305 304 305 302 303 308 309 309 309 307 306 306 304 303 301 300 298 296 295 298 296 296 295 294 292 291 289 289 290 290 290 291 290 290 291 291 291 292
301 307 299 302 303 303 303 304 304 303 304 304 304 305 304 304 305 304 303 303 300 299 298 296 296 296 296 295 294 293 291 290 289 289 289 290 290 290 290 290 291 291 291 292
304 304 302 309 296 296 304 302 302 303 303 303 304 304 305 304 302 301 303 300 299 298 297 295 296 295 295 294 294 292 291 290 289 289 289 290 290 289 290 290 290 291 292 293
304 303 305 308 301 307 306 301 300 301 303 303 302 302 302 299 298 299 301 299 299 296 295 294 294 294 293 294 293 291 290 290 289 289 289 289 289 289 290 290 290 291 292 292
302 303 306 306 307 305 304 302 302 301 302 303 301 301 297 296 296 299 295 294 296 295 292 291 294 293 293 293 292 291 290 290 289 289 289 288 289 289 289 290 290 290 291 291
300 303 304 306 304 303 303 297 295 295 302 303 300 298 297 298 305 305 295 294 295 294 291 290 293 294 293 293 292 290 290 290 290 289 288 288 289 289 289 290 290 290 290 290
301 302 303 305 305 304 302 297 294 302 301 301 298 299 299 301 303 302 298 296 294 293 291 290 293 293 293 293 292 290 290 290 288 288 288 289 289 289 290 290 290 290 290 291
300 302 303 303 305 306 302 294 299 302 300 298 299 300 299 299 299 299 297 297 296 295 292 290 292 294 294 293 292 290 291 289 289 289 289 289 289 289 290 290 290 290 290 290
301 301 303 303 302 301 299 300 298 298 297 298 298 299 299 299 299 298 297 297 296 295 292 290 292 294 294 293 292 290 290 290 289 289 288 289 289 289 289 290 290 290 290 290
299 299 301 300 300 300 300 299 297 297 297 297 298 298 298 298 298 296 295 295 293 292 292 291 291 293 293 292 293 292 292 292 290 289 289 289 289 289 289 289 289 289 290 290
299 299 298 298 298 298 299 300 300 300 299 299 298 298 298 298 297 295 295 294 292 291 290 290 291 293 294 292 292 293 293 292 292 290 290 290 290 290 289 288 288 288 288 288
297 297 298 300 298 299 299 300 299 299 300 300 299 298 296 294 295 295 294 292 290 290 290 289 290 292 294 293 292 292 292 292 294 292 290 290 290 290 290 289 288 288 288 288
Wind_Speed
2 4 7 4 3 4 5 6 11 11 6 7 10 20 26 18 19 19 15 10 8 8 10 11 10 6 5 4 4 6 9 12 13 13 13 15 17 18 19 19 20 20 20 21
4 7 4 2 1 2 4 8 6 8 3 4 12 24 27 21 9 5 5 4 8 10 9 9 10 7 6 4 3 8 11 13 15 15 15 16 17 17 18 18 20 21 23 23
7 3 3 2 3 5 7 7 6 5 10 8 13 11 8 3 4 5 5 4 7 9 9 8 8 8 5 2 8 11 11 11 14 17 18 19 21 23 24 25 28 30 29 28
5 4 4 4 6 4 7 3 1 6 8 3 6 6 10 4 6 7 8 9 9 8 6 5 5 8 6 4 10 13 14 14 18 20 22 24 26 27 29 30 30 29 29 31
4 3 4 6 3 4 2 1 3 5 3 4 2 3 7 2 4 7 11 11 11 9 8 7 6 8 9 10 14 16 18 19 21 22 23 25 27 29 29 29 31 33 35 36
1 1 2 3 1 2 1 4 4 1 2 3 4 3 7 4 3 5 5 10 11 10 8 7 7 7 10 13 18 19 20 21 22 24 26 28 30 31 30 29 30 29 29 31
4 4 3 3 3 3 3 5 3 3 3 2 5 3 11 9 3 2 5 5 6 7 7 6 7 6 15 17 18 19 21 24 25 27 28 28 31 32 33 32 30 28 28 28
4 4 5 6 2 2 5 2 3 6 4 4 2 7 4 1 3 5 6 5 4 7 8 7 7 13 17 18 20 20 23 26 27 27 27 28 30 30 29 29 28 28 27 26
2 3 4 2 2 3 4 4 3 2 2 3 5 6 13 9 11 10 9 8 9 6 5 8 9 16 17 19 20 22 24 26 26 27 28 28 27 29 29 30 29 30 31 32
3 3 2 3 1 2 3 1 2 2 4 6 4 4 10 5 1 4 4 1 1 1 5 7 11 17 18 20 22 23 24 25 26 28 26 26 26 28 29 30 30 31 31 29
1 1 3 2 5 1 3 3 4 3 3 4 8 5 1 4 7 3 4 5 5 11 12 11 12 16 17 20 22 23 24 26 26 25 26 26 27 27 28 29 30 31 31 31
1 1 3 5 4 2 1 2 4 4 3 4 3 11 11 7 5 3 7 7 10 11 13 13 11 15 17 20 22 23 23 25 25 25 26 27 27 28 28 28 30 30 30 30
4 2 3 4 2 3 5 7 7 4 3 11 8 9 5 3 7 9 12 9 9 13 13 12 11 10 16 20 22 23 24 25 25 25 26 27 28 27 27 29 29 29 30 31
2 3 6 11 8 3 4 8 11 10 5 9 17 27 26 23 23 19 16 14 10 11 12 11 9 11 17 21 22 23 24 24 25 25 26 27 27 28 29 30 31 32 31 31
1 6 6 12 14 13 14 15 15 15 19 11 25 23 25 25 24 22 20 7 8 9 10 8 8 10 16 19 22 23 24 24 24 26 26 27 28 29 29 29 30 31 31 31
3 3 1 5 8 9 14 19 18 21 24 24 29 31 27 26 17 15 14 5 8 11 9 5 8 10 12 18 21 24 23 22 24 24 25 28 29 29 28 27 28 29 28 28
7 4 4 6 2 3 9 11 19 15 18 19 20 23 19 25 22 18 9 9 10 8 7 5 7 8 14 19 21 22 23 22 22 23 25 27 27 26 25 29 28 26 21 16
6 6 4 4 1 11 9 3 7 12 17 18 20 21 18 19 18 14 6 10 8 5 7 6 5 10 14 19 21 20 22 20 19 22 23 26 26 26 26 26 26 22 16 10
13 7 4 5 9 15 23 17 14 10 12 15 17 15 11 10 8 0 1 2 4 5 6 8 11 12 17 19 21 20 19 19 18 20 23 26 26 24 23 22 24 19 15 11
9 14 7 7 7 9 11 5 5 6 9 12 11 9 7 6 9 11 5 5 6 8 11 12 13 14 16 21 23 19 17 19 17 21 24 26 25 22 20 20 19 16 16 18
6 5 17 15 11 10 12 10 7 5 9 9 11 7 5 4 7 13 12 10 9 12 14 13 12 13 15 18 21 16 16 17 19 22 23 23 22 20 18 16 17 16 13 17
12 10 9 10 10 18 10 10 9 8 1 3 5 3 6 10 11 12 14 14 10 7 11 14 13 12 13 13 17 16 15 20 18 20 21 20 18 18 17 17 16 15 15 17
8 12 9 11 9 9 6 5 12 3 4 5 7 12 15 12 15 13 11 13 12 9 10 13 14 13 12 10 11 14 20 20 16 18 17 18 18 17 17 18 17 13 16 16
11 13 12 12 19 22 16 11 10 11 12 13 13 14 12 14 14 11 10 11 9 11 10 14 13 11 11 9 7 10 16 16 14 15 16 17 16 18 22 20 19 17 17 16
11 11 19 19 26 20 18 15 15 14 14 12 11 11 13 12 13 9 10 10 8 11 12 11 13 12 14 10 6 7 10 13 13 11 11 12 14 14 20 29 24 21 25 19
16 22 15 16 13 14 16 15 15 14 12 11 10 10 9 10 12 10 10 10 9 10 11 11 16 15 17 12 10 7 4 6 9 9 8 10 10 13 14 17 26 36 35 33
Wind_Direction
72 263 235 11 342 318 298 282 282 292 32 308 275 284 287 287 282 278 273 260 237 219 189 180 179 173 177 220 255 304 311 301 289 280 270 267 260 257 254 252 254 254 252 253
209 240 57 79 141 263 260 288 289 290 15 301 300 293 284 288 264 267 279 195 175 178 181 175 175 170 168 138 6 340 328 312 296 283 277 273 271 274 272 266 259 252 251 247
257 72 123 222 227 263 252 255 295 282 319 265 308 272 279 179 210 232 217 218 183 180 179 178 183 186 168 36 354 347 329 320 298 286 282 276 271 268 262 260 260 255 253 248
266 107 202 227 252 226 277 46 281 297 337 302 14 287 293 265 244 204 204 204 205 201 208 199 200 212 214 324 340 332 322 308 294 285 278 271 267 266 263 265 263 259 252 249
86 179 202 238 265 199 11 347 310 310 296 323 176 228 276 166 228 217 206 209 208 214 212 217 234 256 274 297 317 315 307 299 293 288 281 276 271 268 269 267 265 261 257 251
297 103 241 343 97 260 61 276 226 244 168 242 144 226 286 245 145 156 169 202 213 211 222 228 256 289 308 311 310 305 301 295 291 286 282 279 278 278 277 274 270 267 263 257
172 197 144 202 225 179 244 280 276 249 216 274 146 212 250 282 169 193 168 172 213 213 216 252 284 295 314 315 306 304 301 296 292 289 287 285 283 282 280 277 274 271 267 262
236 231 187 151 264 10 187 297 298 289 287 349 163 240 243 337 346 257 237 241 251 230 234 265 273 313 318 308 305 305 302 299 297 296 294 291 288 285 284 282 278 277 276 274
247 182 117 76 343 308 133 204 55 293 143 271 233 263 268 275 230 242 231 247 246 239 237 257 298 316 315 309 310 308 304 300 300 299 293 289 287 283 280 279 276 270 265 265
43 276 27 90 228 164 283 31 238 172 282 273 232 262 261 263 86 122 151 184 205 317 306 274 311 319 315 312 310 306 306 307 303 299 296 292 289 285 282 280 276 273 270 268
197 248 109 171 198 241 159 227 221 285 241 274 298 267 16 24 21 25 64 358 343 321 317 304 313 312 312 312 311 314 313 307 303 303 300 295 292 291 286 281 278 274 270 264
134 228 230 239 96 47 55 297 241 261 213 254 301 265 307 60 72 8 300 291 306 315 312 314 309 314 315 316 318 317 309 308 306 306 304 301 300 295 289 283 279 275 270 265
174 193 277 184 178 185 223 195 217 224 263 255 263 263 110 5 308 275 288 268 297 309 315 312 316 321 323 327 320 315 312 312 313 314 312 308 302 300 297 290 286 279 270 264
195 206 241 261 317 39 210 207 213 207 234 272 247 282 277 280 277 297 303 319 306 310 313 312 319 326 332 323 314 314 316 319 320 319 315 310 311 308 302 296 291 284 275 264
156 250 231 259 277 282 266 263 246 225 238 247 267 264 287 287 298 301 303 315 303 294 303 309 323 326 325 318 315 321 320 326 327 320 318 317 312 308 305 303 298 289 280 267
174 250 137 262 247 269 268 259 255 250 255 256 262 271 273 285 298 308 302 292 301 303 304 304 320 322 314 319 313 320 325 330 328 320 324 316 313 311 311 313 311 307 298 281
182 202 207 250 84 313 271 242 226 243 243 242 254 261 298 306 311 307 293 296 300 299 284 287 294 297 313 313 319 316 323 325 325 320 327 316 318 312 323 327 323 321 322 319
189 186 201 274 133 256 250 186 237 248 244 240 256 280 298 311 315 306 289 293 300 279 279 279 279 301 315 314 317 318 327 323 323 326 328 319 322 320 331 336 329 337 335 328
216 192 226 243 240 282 293 278 264 211 263 245 252 267 291 303 302 193 358 266 258 233 262 257 271 298 318 320 327 325 332 327 331 337 328 324 325 325 335 342 338 351 12 15
227 218 210 214 241 256 265 116 136 132 267 256 196 239 262 314 338 324 326 281 256 254 264 263 274 301 321 331 343 327 336 324 343 340 330 324 332 337 343 354 354 6 43 49
179 201 221 228 238 256 257 158 162 229 284 164 188 211 225 294 296 303 298 289 270 256 272 275 264 283 310 332 350 331 337 332 342 348 337 334 348 353 357 14 23 24 40 60
182 181 208 225 233 248 187 136 216 254 7 198 208 314 293 290 303 299 296 296 292 254 266 266 255 273 305 328 351 337 340 339 344 354 341 345 358 1 11 23 22 41 45 52
220 211 209 204 216 245 181 233 218 203 293 286 299 300 325 305 301 299 295 303 306 288 262 271 253 267 291 307 353 335 344 352 357 6 344 359 12 17 22 24 19 17 39 51
231 244 243 260 249 256 262 251 258 264 256 265 282 294 296 285 293 291 291 296 298 294 275 276 256 246 267 283 334 337 354 358 13 23 357 12 19 29 37 37 32 27 38 52
250 251 244 253 255 270 272 265 260 256 261 266 265 262 260 279 280 280 285 288 285 280 279 266 249 242 250 262 286 326 351 3 25 30 20 21 34 37 53 55 47 50 56 62
242 247 244 245 264 261 257 251 253 263 264 258 257 269 250 236 256 268 268 266 269 275 279 259 250 242 246 249 264 277 320 351 34 34 42 36 36 43 54 63 65 63 69 71